STARLINK-6146, 57124

Orbit data source: Space-Track

STARLINK-6146, 57124 is a payload satellite owned by SpaceX/Seattle (US) in LEO that was launched on Fri, 23 Jun 2023 UTC via an FALCON 9 launch vehicle from the Air Force Eastern Test Range (AFETR). Payload-class satellites include a variety of spacecraft equipped with specific instruments for various scientific and technological missions. These include communications satellites like Starlink; space stations such as the ISS; scientific satellites like the Hubble; Earth observation satellites from companies like Planet Labs, Umbra, and HawkEye 360; GPS; miniature CubeSats for education and research; and military/defense satellites.

Loading next visibility...
Identifier
57124, 2023-090Z
Orbit
LEO
Country
Flag of USUS
Related business
Manufacturer
SpaceX/Seattle
Mission
Operational Commercial Communications
Bus & Motor
STARLINK, Unknown motor
Mass
305 kg wet, ~290 kg dry
Launch date (UTC)
2023-06-23 (3 years ago)
Launch vehicle
FALCON 9
Launch site
Air Force Eastern Test Range (AFETR)
Object type
Payload
Rocket body
Debris
Shape & HBR
Box + 1 Pan, 10.1 m
Radar Cross Section
11.087 m², Large (>1 m²)

Expand to show TLE details & history
Last TLE update: 2 days ago

TLE from 2 days ago
0 STARLINK-6146
1 57124U 23090Z   26171.41708586  .00000125  00000-0  14073-4 0  9996
2 57124  43.0060  61.3674 0001646 289.4136  70.6538 15.27574933166043
Epoch: 2026-06-20T10:00Z
TLE epoch observation values (Epoch: 2026-06-20T10:00:36.218Z)
Latitude
0.00001°
Longitude
2.58449°
Altitude
482.466 km
Speed
7.626 km/s
True Right ascension
04h 05m 28s
True Declination
0° 00' 00"
Sunlit
Object was in daylight at epoch
Visualization orbit readout
Latitude
Unknown
Longitude
Unknown
Altitude
Unknown
Speed
Unknown
Apparent Right ascension
Unknown
Apparent Declination
Unknown
Sunlit
N/A
Visualization observer readout
Local Sidereal Time
23:08:50
Azimuth
Unknown
Elevation
Unknown
Doppler factor
Unknown
Orbital elements
Apogee altitude
486.138 km
Perigee altitude
483.879 km
Semi-major axis
6,863.145 km
Eccentricity
0.00016
Inclination
43.006°
RAAN
61.3674°
Arg. of periapsis
289.4136°
True anomaly
70.6716°
Mean anomaly
70.6538°
Eccentric anomaly
70.6627°
Mean motion
3.81732 °/min
Orbital period
94.31 mins
BSTAR
0.000014073
Loading maneuver chart data...
Computing Atmospheric mass density...
Loading historical data...
Loading historical data...
Loading historical data...
Loading historical data...
Loading historical data...
Loading historical data...
Loading historical data...

Documentation

Showing up to 5 results
|